Weather History for KRPJ - March, 2014

Change the Weather History Date:

Thursday, March 6, 2014

  Actual Average (KRFD) Record (KRFD)
Temperature  
Mean Temperature 18 °F 33 °F  
Max Temperature 32 °F 42 °F 70 °F (2000)
Min Temperature 5 °F 24 °F -7 °F (1960)
Degree Days  
Heating Degree Days 46 32  
Month to date heating degree days 198  
Since 1 July heating degree days 5200  
Cooling Degree Days 0 0  
Month to date cooling degree days 0  
Year to date cooling degree days 0  
Moisture  
Dew Point 9 °F    
Average Humidity 75    
Maximum Humidity 90    
Minimum Humidity 50    
Precipitation  
Precipitation 0.00 in 0.07 in 1.15 in (1973)
Month to date precipitation 0.39  
Year to date precipitation 3.17  
Snow  
Snow 0.00 in 0.20 in 5.50 in (1975)
Month to date snowfall 1.2  
Since 1 July snowfall 32.2  
Snow Depth -    
Sea Level Pressure  
Sea Level Pressure 30.25 in    
Wind  
Wind Speed 7 mph (ESE)    
Max Wind Speed 12 mph    
Max Gust Speed -    
Visibility 10 miles    
Events      
T = Trace of Precipitation, MM = Missing Value Source: NWS Daily Summary

Daily Weather History Graph

Daily Weather History Graph

Search for Another Location

Airport or City:

Trip Planner

Search our weather history database for the weather conditions in past years. The results will help you decide how hot, cold, wet, or windy it might be!

Date:

Astronomy

Mar. 06, 2014 Rise Set
Actual Time 6:23 AM CST 5:52 PM CST
Civil Twilight 5:55 AM CST 6:20 PM CST
Nautical Twilight 5:23 AM CST 6:52 PM CST
Astronomical Twilight 4:50 AM CST 7:25 PM CST
Moon 9:25 AM CST (3/6) No Moon Set
Length of Visible Light 12h 25m
Length of Day
11h 29m
Waxing Crescent, 32% of the Moon is Illuminated
Mar 6
Waxing Crescent
Mar 8
First Quarter
Mar 16
Full
Mar 23
Last Quarter
Mar 30
New

Hourly Weather History & Observations

Time (CST) Temp. Windchill Dew Point Humidity Pressure Visibility Wind Dir Wind Speed Gust Speed Precip Events Conditions
12:15 AM 12.2 °F -0.2 °F 8.1 °F 83% 30.40 in 10.0 mi NE 9.2 mph - N/A   Scattered Clouds
12:35 AM 12.2 °F 0.7 °F 8.1 °F 83% 30.40 in 10.0 mi NE 8.1 mph - N/A   Clear
12:55 AM 11.8 °F 0.3 °F 7.7 °F 83% 30.39 in 10.0 mi ENE 8.1 mph - N/A   Clear
1:15 AM 11.3 °F -1.3 °F 7.5 °F 85% 30.39 in 10.0 mi NE 9.2 mph - N/A   Clear
1:35 AM 11.1 °F -1.6 °F 7.3 °F 85% 30.40 in 10.0 mi NNE 9.2 mph - N/A   Clear
1:55 AM 10.8 °F -1.1 °F 7.3 °F 86% 30.39 in 10.0 mi NE 8.1 mph - N/A   Clear
2:15 AM 10.4 °F -3.3 °F 6.8 °F 85% 30.38 in 10.0 mi NE 10.4 mph - N/A   Clear
2:35 AM 9.7 °F -2.4 °F 6.4 °F 87% 30.38 in 10.0 mi NE 8.1 mph - N/A   Clear
2:55 AM 9.0 °F -3.2 °F 5.4 °F 85% 30.37 in 10.0 mi NE 8.1 mph - N/A   Clear
3:15 AM 8.1 °F -3.2 °F 4.3 °F 85% 30.37 in 10.0 mi NE 6.9 mph - N/A   Clear
3:35 AM 7.7 °F -4.8 °F 4.5 °F 87% 30.36 in 10.0 mi NE 8.1 mph - N/A   Clear
3:55 AM 8.1 °F -5.3 °F 5.0 °F 87% 30.36 in 10.0 mi ENE 9.2 mph - N/A   Clear
4:15 AM 7.7 °F -4.8 °F 4.3 °F 86% 30.36 in 10.0 mi ENE 8.1 mph - N/A   Clear
4:35 AM 7.3 °F -5.2 °F 4.1 °F 87% 30.35 in 10.0 mi ENE 8.1 mph - N/A   Clear
4:55 AM 8.1 °F -4.3 °F 4.8 °F 87% 30.35 in 10.0 mi ENE 8.1 mph - N/A   Clear
5:15 AM 7.7 °F -4.8 °F 4.3 °F 86% 30.35 in 10.0 mi ENE 8.1 mph - N/A   Clear
5:35 AM 6.8 °F -3.5 °F 3.2 °F 85% 30.35 in 10.0 mi NE 5.8 mph - N/A   Clear
5:55 AM 6.6 °F -5.0 °F 3.2 °F 86% 30.35 in 10.0 mi NE 6.9 mph - N/A   Clear
6:15 AM 5.9 °F -3.0 °F 2.3 °F 85% 30.34 in 10.0 mi NE 4.6 mph - N/A   Clear
6:35 AM 5.7 °F -3.2 °F 2.1 °F 85% 30.34 in 7.0 mi NE 4.6 mph - N/A   Clear
6:55 AM 6.4 °F -3.9 °F 3.0 °F 86% 30.34 in 7.0 mi NE 5.8 mph - N/A   Clear
7:15 AM 7.7 °F -3.7 °F 4.5 °F 87% 30.34 in 7.0 mi ENE 6.9 mph - N/A   Clear
7:35 AM 9.7 °F -1.3 °F 6.1 °F 85% 30.33 in 10.0 mi ENE 6.9 mph - N/A   Clear
7:55 AM 12.0 °F 1.5 °F 7.9 °F 83% 30.33 in 10.0 mi ENE 6.9 mph - N/A   Clear
8:15 AM 14.4 °F 6.9 °F 10.2 °F 84% 30.33 in 10.0 mi ENE 4.6 mph - N/A   Clear
8:35 AM 16.7 °F 8.3 °F 12.0 °F 82% 30.32 in 10.0 mi ENE 5.8 mph - N/A   Clear
8:55 AM 19.0 °F 9.0 °F 11.3 °F 72% 30.32 in 10.0 mi East 8.1 mph - N/A   Clear
9:15 AM 21.0 °F 11.4 °F 14.2 °F 75% 30.31 in 10.0 mi ESE 8.1 mph - N/A   Clear
9:35 AM 21.7 °F 12.3 °F 13.8 °F 72% 30.32 in 10.0 mi ESE 8.1 mph - N/A   Clear
9:55 AM 22.8 °F 15.5 °F 14.0 °F 69% 30.31 in 10.0 mi ESE 5.8 mph - N/A   Clear
10:15 AM 23.4 °F 14.3 °F 14.9 °F 70% 30.31 in 10.0 mi SE 8.1 mph - N/A   Clear
10:35 AM 23.4 °F 13.5 °F 13.1 °F 65% 30.31 in 10.0 mi SE 9.2 mph - N/A   Clear
10:55 AM 23.4 °F 13.5 °F 12.9 °F 64% 30.31 in 10.0 mi SE 9.2 mph - N/A   Clear
11:15 AM 23.4 °F 12.2 °F 12.9 °F 64% 30.30 in 10.0 mi SE 11.5 mph - N/A   Clear
11:35 AM 23.9 °F 12.9 °F 13.1 °F 63% 30.29 in 10.0 mi SE 11.5 mph - N/A   Clear
11:55 AM 25.2 °F 16.5 °F 13.6 °F 62% 30.28 in 10.0 mi SSE 8.1 mph - N/A   Clear
12:15 PM 24.6 °F 17.7 °F 13.6 °F 63% 30.28 in 10.0 mi SE 5.8 mph - N/A   Clear
12:35 PM 27.1 °F 23.2 °F 14.5 °F 59% 30.27 in 10.0 mi SE 3.5 mph - N/A   Clear
12:55 PM 28.0 °F 22.8 °F 14.5 °F 57% 30.25 in 10.0 mi SE 4.6 mph - N/A   Clear
1:15 PM 28.0 °F 20.8 °F 14.5 °F 57% 30.24 in 10.0 mi SE 6.9 mph - N/A   Clear
1:35 PM 29.1 °F 24.1 °F 15.4 °F 57% 30.23 in 10.0 mi SE 4.6 mph - N/A   Clear
1:55 PM 30.2 °F 24.3 °F 14.9 °F 53% 30.22 in 10.0 mi SSE 5.8 mph - N/A   Clear
2:15 PM 27.5 °F 23.6 °F 15.1 °F 60% 30.20 in 10.0 mi SSE 3.5 mph - N/A   Clear
2:35 PM 30.0 °F - 15.8 °F 56% 30.21 in 10.0 mi Calm Calm - N/A   Clear
2:55 PM 31.6 °F 28.3 °F 16.0 °F 52% 30.19 in 10.0 mi SE 3.5 mph - N/A   Clear
3:10 PM 32.0 °F - 15.8 °F 51% 30.20 in 10.0 mi Calm Calm - N/A   Clear
3:35 PM 32.9 °F - 16.0 °F 50% 30.19 in 10.0 mi Calm Calm - N/A   Clear
3:55 PM 30.0 °F - 16.0 °F 56% 30.18 in 10.0 mi Calm Calm - N/A   Clear
4:15 PM 28.2 °F - 15.8 °F 60% 30.17 in 10.0 mi Calm Calm - N/A   Clear
4:35 PM 28.0 °F - 16.2 °F 61% 30.17 in 10.0 mi Calm Calm - N/A   Clear
4:55 PM 25.9 °F - 14.0 °F 61% 30.17 in 10.0 mi Calm Calm - N/A   Clear
5:15 PM 24.3 °F - 12.4 °F 61% 30.16 in 10.0 mi Calm Calm - N/A   Clear
5:35 PM 22.3 °F - 10.4 °F 60% 30.15 in 10.0 mi Calm Calm - N/A   Clear
5:55 PM 19.9 °F - 10.6 °F 67% 30.14 in 10.0 mi Calm Calm - N/A   Clear
6:15 PM 17.6 °F - 9.7 °F 71% 30.13 in 10.0 mi Calm Calm - N/A   Clear
6:35 PM 15.1 °F - 8.6 °F 76% 30.14 in 10.0 mi Calm Calm - N/A   Clear
6:55 PM 13.5 °F - 7.7 °F 78% 30.12 in 10.0 mi Calm Calm - N/A   Clear
7:15 PM 12.6 °F 1.1 °F 3.7 °F 68% 30.12 in 10.0 mi SE 8.1 mph - N/A   Clear
7:35 PM 10.4 °F -0.4 °F 1.4 °F 67% 30.11 in 10.0 mi SE 6.9 mph - N/A   Clear
7:50 PM 9.5 °F -2.6 °F 1.9 °F 71% 30.11 in 10.0 mi SE 8.1 mph - N/A   Clear
8:15 PM 10.2 °F -2.7 °F 5.4 °F 81% 30.11 in 10.0 mi SE 9.2 mph - N/A   Clear
8:35 PM 10.0 °F -0.9 °F 6.4 °F 85% 30.10 in 10.0 mi SE 6.9 mph - N/A   Clear
8:55 PM 10.4 °F -0.4 °F 6.8 °F 85% 30.09 in 10.0 mi SE 6.9 mph - N/A   Clear
9:15 PM 10.4 °F 4.0 °F 6.6 °F 85% 30.09 in 10.0 mi SSE 3.5 mph - N/A   Clear
9:35 PM 10.2 °F -1.7 °F 7.0 °F 87% 30.10 in 10.0 mi SSE 8.1 mph - N/A   Clear
9:55 PM 13.6 °F 0.7 °F 11.1 °F 90% 30.10 in 10.0 mi SSE 10.4 mph - N/A   Clear
10:15 PM 14.9 °F 5.0 °F 10.6 °F 83% 30.09 in 10.0 mi SSE 6.9 mph - N/A   Clear
10:35 PM 13.1 °F 4.0 °F 8.4 °F 82% 30.10 in 10.0 mi SSE 5.8 mph - N/A   Clear
10:55 PM 12.9 °F -0.2 °F 9.1 °F 85% 30.09 in 10.0 mi SSE 10.4 mph - N/A   Clear
11:15 PM 13.6 °F 0.0 °F 10.2 °F 86% 30.07 in 10.0 mi SSE 11.5 mph - N/A   Clear
11:35 PM 13.5 °F 0.5 °F 10.0 °F 86% 30.06 in 10.0 mi SSE 10.4 mph - N/A   Clear
11:55 PM 12.0 °F 0.5 °F 8.2 °F 85% 30.06 in 10.0 mi South 8.1 mph - N/A   Clear